www.pogodaiklimat.ru

Погода и климат >> Архив погоды >> Оман >> Ibra


ПОГОДА в Ibra

  • Прогноз погоды в Ibra
  • Монитор погоды в Ibra
  • Климат города

АРХИВ ПОГОДЫ в Ibra

Время (UTC), дата Ветер
(напр.,м/с)
 
Видим.   Явления Облачность Т
(С)
Тd
(С)
f
(%)
Тe
(С)
Тes
(С)
Комфортность P
(гПа)
Po
(гПа)
Тmin
(С)
Tmax
(С)
R
(мм)
R24
(мм)
S
(см)
18 13.05 Ю 5 10 км ясно +33.9 +9.9 23 +33 +33 жарко 1006.0 950.5 +39.8
21 13.05 В 3 н/о н/о +29.8 +13.4 37 +31 +31 жарко 1005.0 950.4
00 14.05 В 2 н/о н/о +27.4 +12.3 39 +29 +29 жарко 1005.4 950.3
03 14.05 штиль 0 н/о н/о +28.3 +13.4 40 +30 +30 жарко 1006.3 951.3
06 14.05 Ю 2 8000 м мгла 5/0
[Ci fib]
+33.4 +10.7 25 +33 +48 жарко 1008.2 952.5 +26.6
09 14.05 ЮЗ 5 8000 м мгла ясно +38.6 +5.3 13 +36 +48 очень
жарко
1005.2 950.5
12 14.05 З 6 8000 м мгла ясно +39.6 +3.7 11 +36 +39 очень
жарко
1002.7 948.3
15 14.05 Ю 6 7000 м мгла 4/3 750 м
[Sc Ci fib]
+37.4 +4.4 13 +34 +34 очень
жарко
1003.5 948.7
18 14.05 Ю 3 9000 м мгла ясно +34.5 +6.8 18 +32 +32 жарко 1005.9 950.5 +40.0
21 14.05 В 2 н/о н/о +30.3 +16.5 43 +34 +34 очень
душно
1004.9 950.4
00 15.05 штиль 0 н/о н/о +28.1 +16.6 50 +32 +32 душно 1004.9 950.0
03 15.05 В 2 н/о н/о +28.9 +20.1 59 +35 +35 очень
душно
1006.2 951.5
06 15.05 СЗ 2 н/о н/о +33.6 +17.1 37 +37 +37 очень
душно
1006.0 952.0 +27.3
09 15.05 З 4 н/о н/о +37.8 +12.7 22 +37 +37 очень
жарко
1003.4 950.1
12 15.05 Ю 6 н/о н/о +39.8 +11.8 19 +39 +39 очень
жарко
1000.5 947.7
15 15.05 С 5 н/о н/о +37.0 +10.7 20 +36 +36 очень
жарко
1001.7 948.4
18 15.05 Ю 5 9000 м мгла 4/3 750 м
[Sc diur, vesp Ac trans]
+33.8 +16.2 35 +36 +36 очень
душно
1005.7 950.4 +40.0
21 15.05 ЮВ 2 н/о н/о +30.6 +19.2 51 +36 +36 очень
душно
1004.8 950.4
00 16.05 В 1 н/о н/о +28.7 +20.0 59 +35 +35 очень
душно
1004.7 950.0
03 16.05 В 2 н/о н/о +29.0 +20.7 61 +36 +36 очень
душно
1005.9 951.2
06 16.05 ЮВ 2 н/о н/о +34.2 +19.0 41 +39 +39 очень
душно
1005.5 951.7 +27.7
09 16.05 ЮЗ 3 н/о н/о +38.5 +14.2 24 +39 +39 душно 1002.2 949.2
12 16.05 С 5 н/о н/о +34.9 +9.5 21 +34 +34 очень
жарко
1003.6 949.9
15 16.05 С 1 н/о н/о +34.5 +8.0 20 +33 +33 жарко 1003.6 949.8
18 16.05 В 3 н/о н/о +32.5 +8.7 23 +31 +31 жарко 1005.6 951.3 +39.7
21 16.05 В 3 н/о н/о +29.3 +15.9 44 +32 +32 душно 1006.1 951.3
00 17.05 ЮВ 2 н/о н/о +27.8 +17.3 53 +32 +32 душно 1005.8 950.8
03 17.05 ЮВ 1 н/о н/о +27.8 +20.1 63 +34 +34 очень
душно
1006.9 951.9
06 17.05 З 3 8000 м мгла ясно +33.3 +17.9 40 +37 +51 опасность
солнечного
удара
1007.7 952.2 +27.0
09 17.05 ЮЗ 5 9000 м мгла 6/6 750 м
[Sc]
+38.7 +14.6 24 +39 +44 душно 1004.7 950.2
12 17.05 С 5 9000 м гроза, ливневой дождь 9/6 750 м
[Sc Ac lent]
+28.2 +16.5 49 +32 +32 душно 1006.6 950.2 2
15 17.05 ЮВ 3 н/о н/о +29.2 +18.5 53 +34 +34 очень
душно
1005.0 950.3
18 17.05 СЗ 4 н/о н/о +28.2 +19.1 58 +34 +34 очень
душно
1006.9 952.0 +39.3
21 17.05 З 2 н/о н/о +27.3 +20.3 66 +34 +34 очень
душно
1005.6 950.6
00 18.05 СЗ 1 н/о н/о +25.7 +20.0 71 +32 +32 очень
душно
1005.9 950.6 3
03 18.05 штиль 0 н/о н/о +26.8 +17.7 57 +31 +31 душно 1007.2 951.9
06 18.05 В 2 8000 м мгла ясно +33.3 +17.1 38 +37 +53 опасность
солнечного
удара
1007.4 951.9 +24.7
09 18.05 ЮВ 3 8000 м мгла 6/6 750 м
[Sc diur, vesp]
+36.6 +14.0 26 +37 +44 очень
жарко
1004.8 949.9
12 18.05 В 6 8000 м мгла 6/5 750 м
[Sc diur, vesp Ac trans]
+37.0 +12.5 23 +37 +38 очень
жарко
1002.7 948.0
15 18.05 н/о н/о +34.9 +11.6 24 1002.2 948.6
18 18.05 ЮВ 2 н/о н/о +32.2 +11.7 29 +32 +32 жарко 1004.8 950.5 +38.8
21 18.05 В 1 н/о н/о +30.3 +11.7 32 +31 +31 жарко 1004.5 949.9
00 19.05 З 2 н/о н/о +27.0 +12.9 42 +29 +29 жарко 1004.7 949.5
03 19.05 штиль 0 н/о н/о +28.1 +13.6 41 +30 +30 жарко 1005.5 950.5
06 19.05 ЮВ 2 н/о н/о +34.3 +9.9 23 +33 +33 жарко 1004.9 951.0 +25.2
09 19.05 ЮЗ 3 н/о н/о +37.9 +7.0 15 +35 +35 очень
жарко
1002.2 949.0
12 19.05 СЗ 3 н/о н/о +39.5 +6.7 14 +37 +37 очень
жарко
999.7 946.8
15 19.05 СВ 4 н/о н/о +35.2 +6.2 17 +33 +33 жарко 1002.1 948.4
18 19.05 С 2 н/о н/о +32.9 +0.5 13 +30 +30 жарко 1004.6 950.4 +40.3
21 19.05 В 2 н/о н/о +29.0 +9.3 29 +29 +29 жарко 1005.1 950.2
00 20.05 В 2 н/о н/о +27.0 +10.0 34 +27 +27 жарко 1004.9 949.7
03 20.05 З 1 н/о н/о +28.0 +12.1 37 +29 +29 жарко 1006.0 951.0
06 20.05 СВ 3 9000 м мгла 4/0
[Ci fib]
+35.4 -0.8 10 +32 +44 жарко 1006.6 951.2 +25.6
09 20.05 В 4 10 км 3/0
[Ci fib]
+37.5 +0.8 10 +34 +49 очень
жарко
1004.7 949.8
12 20.05 СВ 3 н/о н/о +39.0 +1.4 10 +35 +35 очень
жарко
1000.9 947.8

 

Местоположение метеостанции Ibra (Оман): широта 22.73 долгота 58.50 высота над уровнем моря 469 м.

В архиве по умолчанию представлена погода в Ibra за последнюю неделю. Архивные данные за месяц целиком и за предыдущие месяцы, начиная с января 2011 года, Вы можете получить, выбрав интересующий диапазон дат из раскрывающегося списка и нажав кнопку "Ввод!".


*Определитесь, кто Вы:
робот инопланетянин человек

Внимание! Время в таблицах - всемирное. Для получения местного времени необходимо прибавить поправку, которая в Ibra равна 4 ч.

Смотрите также архив погоды в соседних городах и на ближайших метеорологических станциях:

Погода в Al Mudhaibi (Оман) (45 км)
Погода в Bidiya (Оман) (47 км)
Погода в Al Amerat (Оман) (86 км)
Погода в Samail (Оман) (86 км)
Погода в Qalhat (Оман) (93 км)
Погода в Saiq (Оман) (97 км)
Погода в Seeb (Оман) (97 км)
Погода в Mina Sultan Qaboos (Оман) (99 км)
Погода в Nizwa (Оман) (100 км)
Погода в Sur (Оман) (102 км)

Пояснения к столбцам:

Ветер - указаны скорость ветра в м/с - средняя за 10 мин, порывы в срок и между сроками (в фигурных скобках) и направление, откуда дует ветер: С - северный, СВ - северо-восточный, В - восточный, ЮВ - юго-восточный, Ю - южный, ЮЗ - юго-западный, З - западный, СЗ - северо-западный.
Видимость - горизонтальная дальность видимости в метрах или километрах. При видимости от 1 до 10 км при отсутствии осадков обычно наблюдается дымка, при ухудшении видимости до 1 км и менее - туман. В сухую погоду видимость может ухудшаться дымом, пылью или мглою.
Явления - указаны атмосферные явления, наблюдавшиеся в срок или в последний час перед сроком; фигурными скобками обозначены явления, наблюдавшиеся между сроками (за 1-3 часа до срока); квадратными скобками обозначены град или гололедные отложения с указанием их диаметра в мм.
Облачность - указаны через наклонную черту общая и нижняя облачность в баллах и высота нижней границы облаков в метрах; квадратными скобками обозначены формы облаков: Ci - перистые, Cs - перисто-слоистые, Cc - перисто-кучевые, Ac - высококучевые, As - высокослоистые, Sc - слоисто-кучевые, Ns - слоисто-дождевые, Cu - кучевые, Cb - кучево-дождевые. Подробнее классификацию облаков см. в Атласе облаков (PDF).
T - Температура воздуха - температура, измеренная на высоте 2 м над землей.
Td - Температура точки росы - температура, при понижении до которой содержащийся в воздухе водяной пар достигнет насыщения.
f - Относительная влажность воздуха - влажноcть воздуха, измеренная на высоте 2 м над землей.
Te - Эффективная температура - температура, которую ощущает одетый по сезону человек в тени. Характеристика душности погоды. При расчете учитывается влияние влажности воздуха и скорости ветра на теплоощущения человека.
Tes - Эффективная температура на солнце - температура, которую ощущает человек, с поправкой на солнечный нагрев. Характеристика знойности погоды. Зависит от высоты солнца над горизонтом, облачности и скорости ветра. Ночью, в пасмурную погоду, а также при ветре 12 м/с и более поправка равна нулю.
P - Атмосферное давление - приведенное к уровню моря атмосферное давление.
Po - Атмосферное давление - измеренное на уровне метеостанции атмосферное давление.
Tmin - Минимальная температура - минимум температуры воздуха на высоте 2 м над землей.
Tmax - Максимальная температура - максимум температуры воздуха на высоте 2 м над землей.
R - Количество осадков - Количество выпавших осадков за период времени, мм. При наведении курсора мыши на число - период времени, за который выпало указанное количество осадков.
R24 - Количество осадков - Количество выпавших осадков за 24 часа, мм.
S - Снежный покров - Высота снежного покрова, см. При наведении курсора мыши на число - состояние снежного покрова и степень покрытия местности в баллах.